Weather in Volodymyrivka

Ukraine / Donetsk Region     48°39′55″N   38°11′31″E
В апреле 2022 года жителям России запретили посещать сайт meteo.paraplan.net по решению Генеральной прокуратуры. Аудитория сайта уменьшилась в 10 раз. Владельцы сайта не видят смысла в поддержке погодного сервера в таких условиях. Сайт будет закрыт в октябре.
temp.,
°C
wind,
m/s
gust,
m/s
humid.,
%
clouds,
%
prec.,
mm/h
press.,
hPa
HPBL,
m
4 october, tue
tue400:00+11s386696 0.0 1012147
03:00+11s497452 0.0 1012165
06:00+12s61280100 0.2 1013423
09:00+14s7117468 0.8 1013631
12:00+17ssw8105550 0.3 10131634
15:00+17sw5853100 1.1 1014942
18:00+15sw3659100 0.1 1015179
21:00+11wsw11693 0.1 101711
5 october, wed
wed500:00+9w36740 0.0 1019133
03:00+8wsw23780 0.0 102057
06:00+7sw37780 0.0 1021164
09:00+11wsw58640 0.0 1022534
12:00+15wsw675123 0.0 10221425
15:00+15w795039 0.0 10221699
18:00+13wsw3755100 0.0 1023132
21:00+13wnw3757100 0.0 1024400
6 october, thu
thu600:00+11nw246699 0.0 1025300
03:00+9w227551 0.0 102539
06:00+8wsw238197 0.0 102652
09:00+12wsw356968 0.0 1026393
12:00+16w455163 0.0 10251108
15:00+17wnw564759 0.0 10241660
18:00+14wnw22595 0.0 102511
21:00+13sw22625 0.0 102516
7 october, fri
fri700:00+12wsw22675 0.0 102623
03:00+11sw22715 0.0 102522
06:00+10wsw22745 0.0 102521
09:00+14wsw345813 0.0 1025264
12:00+18wnw344527 0.0 1025830
15:00+19nw33445 0.0 10241219
18:00+16n225736 0.0 102411
21:00+14nne22677 0.0 102526
8 october, sat
sat800:00+12ne357897 0.0 102683
03:00+11ene3584100 0.0 102589
06:00+11ene3587100 0.0 1025103
09:00+14e5871100 0.0 1025361
12:00+18e5651100 0.0 1024867
15:00+19e5646100 0.0 10221144
18:00+16ene3456100 0.0 102260
21:00+14e3663100 0.0 1021101